Tracking 31027 objects as of 19-Jul-2025
HD Live streaming from Space Station
objects crossing your sky now

ARIANE 44LP DEB

Track ARIANE 44LP DEB now!


NORAD ID: 33543
Int'l Code: 1988-109S
Perigee: 611.9 km
Apogee: 35,544.0 km
Inclination: 6.7 °
Period: 634.1 minutes
Semi major axis: 24448 km
RCS: 0.5686 m2 (medium)
Launch date: December 11, 1988
Source: France (FR)
Launch site: FRENCH GUIANA (FRGUI)

Note: This is SATELLITE DEBRIS
Your satellite tracking list
ATLAS 2A CENTAUR R/B
Track 1 satellite(s)




NASA's NSSDC Master Catalog

Two Line Element Set (TLE):
1 33543U 88109S   25199.33030608 -.00000199  00000-0 -20664-2 0  9994
2 33543   6.6610 178.6762 7143888 171.2716 275.7078  2.27097294188218
Source of the keplerian elements: AFSPC